This is the latest recevied weather packets stored in our database for station/object NL3D. If no packets are shown the sender has not sent any weather packets the latest 1 day(s).
| Time | Temp. | Humidity | Pressure | Rain* | Wind** | Luminosity | Snow |
|---|---|---|---|---|---|---|---|
| 1778032704 | 10.56° C | 48% | 1006.6 hPa | 0 mm | - | 191 W/m² | - |
| 1778032402 | 11.11° C | 47% | 1006.9 hPa | 0 mm | - | 236 W/m² | - |
| 1778032098 | 11.67° C | 47% | 1006.8 hPa | 0 mm | - | 519 W/m² | - |
| 1778031795 | 11.11° C | 48% | 1006.7 hPa | 0 mm | - | 426 W/m² | - |
| 1778031492 | 11.11° C | 48% | 1006.8 hPa | 0 mm | - | 310 W/m² | - |
| 1778031189 | 11.11° C | 47% | 1006.9 hPa | 0 mm | - | 326 W/m² | - |
| 1778030280 | 11.11° C | 45% | 1006.9 hPa | 0 mm | - | 543 W/m² | - |
| 1778029976 | 11.11° C | 47% | 1006.9 hPa | 0 mm | - | 328 W/m² | - |
| 1778029674 | 11.11° C | 47% | 1007 hPa | 0 mm | - | 407 W/m² | - |
| 1778029069 | 11.67° C | 45% | 1006.7 hPa | 0 mm | - | 454 W/m² | - |
| 1778028461 | 11.67° C | 45% | 1006.8 hPa | 0 mm | - | 686 W/m² | - |
| 1778028159 | 11.67° C | 48% | 1006.7 hPa | 0 mm | - | 353 W/m² | - |
| 1778027854 | 11.67° C | 47% | 1006.8 hPa | 0 mm | - | 394 W/m² | - |
| 1778026337 | 10° C | 51% | 1007 hPa | 0 mm | - | 263 W/m² | - |
| 1778026034 | 10° C | 52% | 1007 hPa | 0 mm | - | 236 W/m² | - |
| 1778025732 | 10.56° C | 50% | 1006.7 hPa | 0 mm | - | 243 W/m² | - |
| 1778023915 | 10.56° C | 58% | 1006.7 hPa | 0 mm | - | 282 W/m² | - |
| 1778023006 | 10° C | 58% | 1007 hPa | 0 mm | - | 287 W/m² | - |
| 1778022099 | 9.44° C | 62% | 1006.8 hPa | 0 mm | - | 231 W/m² | - |
| 1778020583 | 9.44° C | 64% | 1006.6 hPa | 0 mm | - | 322 W/m² | - |
| 1778019065 | 9.44° C | 64% | 1006.7 hPa | 0 mm | - | 333 W/m² | - |
| 1778016943 | 9.44° C | 69% | 1006.3 hPa | 0 mm | - | 267 W/m² | - |
| 1778015426 | 9.44° C | 68% | 1006.4 hPa | 0 mm | - | 261 W/m² | - |
* Rain latest hour (hover to see other rain measurements)
** Current wind speed in m/s (hover to see current wind gust speed)